Date,TemperatureHighF,TemperatureAvgF,TemperatureLowF,DewpointHighF,DewpointAvgF,DewpointLowF,HumidityHigh,HumidityAvg,HumidityLow,PressureMaxIn,PressureMinIn,WindSpeedMaxMPH,WindSpeedAvgMPH,GustSpeedMaxMPH,PrecipitationSumIn
2013-1-1,30.6,24.1,8.6,29.0,17.9,5.0,92,77,61,30.14,30.00,9,4,0,0.03
2013-1-2,20.2,10.5,1.8,14.0,5.3,-3.0,86,79,70,30.25,30.12,12,6,0,0.03
2013-1-3,28.5,20.9,8.1,24.0,14.2,1.0,84,75,64,30.24,30.14,21,10,0,0.00
2013-1-4,27.0,20.6,13.1,21.0,15.2,9.0,84,79,73,30.26,30.17,21,13,0,0.00
2013-1-5,34.3,25.8,16.2,31.0,21.5,13.0,92,84,75,30.30,30.07,22,9,0,0.02
2013-1-6,35.0,31.3,26.1,31.0,27.1,22.0,89,84,80,30.30,29.94,24,13,0,0.05
2013-1-7,32.8,26.4,18.4,26.0,22.0,16.0,90,83,72,30.41,30.18,17,8,0,0.01
2013-1-8,39.1,28.2,19.7,30.0,23.1,16.0,87,81,71,30.27,30.17,16,7,0,0.02
2013-1-9,42.1,36.7,27.0,34.0,31.3,24.0,89,81,71,30.48,30.09,19,10,0,0.02
2013-1-10,40.2,32.9,25.0,34.0,28.9,22.0,92,85,74,30.52,30.08,10,3,0,0.08
2013-1-11,57.6,47.7,36.2,53.0,45.1,34.0,97,90,78,30.07,29.76,24,9,0,0.83
2013-1-12,58.9,52.0,46.7,53.0,49.1,44.0,98,89,81,29.92,29.70,16,7,0,0.39
2013-1-13,52.5,39.9,29.1,52.0,38.6,25.0,98,95,85,30.08,29.65,19,9,0,0.20
2013-1-14,28.4,23.0,18.9,25.0,17.4,14.0,86,79,72,30.44,30.09,21,7,0,0.20
2013-1-15,29.7,24.3,17.7,22.0,18.4,14.0,88,78,67,30.42,30.13,9,4,0,0.00
2013-1-16,34.6,28.4,21.8,27.0,22.5,19.0,90,79,64,30.12,29.88,19,8,0,0.00
2013-1-17,38.8,30.8,20.8,30.0,23.4,12.0,92,75,55,30.35,30.01,21,8,0,0.00
2013-1-18,37.2,28.7,20.3,24.0,19.5,15.0,81,69,56,30.45,30.04,29,14,0,0.00
2013-1-19,48.3,41.1,35.9,35.0,29.7,24.0,78,64,55,30.03,29.72,31,17,0,0.00
2013-1-20,41.9,24.6,17.7,34.0,13.2,9.0,77,62,46,30.21,29.71,32,14,0,0.00
2013-1-21,19.4,15.1,7.9,10.0,2.9,-6.0,72,59,46,30.19,30.04,29,14,0,0.00
2013-1-22,12.9,8.5,3.7,-2.0,-4.5,-6.0,66,56,44,30.34,30.19,21,10,0,0.00
2013-1-23,18.4,13.9,7.0,13.0,2.8,-4.0,81,62,45,30.33,30.09,17,9,0,0.00
2013-1-24,23.6,15.9,6.1,13.0,4.0,-1.0,81,61,38,30.60,30.11,20,6,0,0.00
2013-1-25,23.5,20.4,17.7,21.0,13.6,7.0,88,75,61,30.47,30.01,13,7,0,0.00
2013-1-26,28.7,23.9,18.0,21.0,17.6,12.0,90,77,56,30.44,30.06,11,4,0,0.00
2013-1-27,33.4,25.1,15.2,31.0,19.8,11.0,90,80,71,30.46,30.10,17,7,0,0.00
2013-1-28,47.6,42.8,33.4,47.0,42.0,31.0,99,97,91,30.12,29.89,23,10,0,0.21
2013-1-29,59.5,54.0,41.3,56.0,51.9,41.0,100,93,85,29.95,29.40,28,14,0,0.01
2013-1-30,61.8,48.5,30.9,58.0,45.9,25.0,99,91,78,29.38,29.14,30,16,0,0.11
2013-1-31,30.6,21.4,13.6,26.0,13.6,5.0,87,72,57,29.98,29.39,32,21,0,0.11
2013-2-1,14.3,11.2,6.3,6.0,2.8,-1.0,74,69,62,30.33,29.99,24,14,0,0.00
2013-2-2,24.7,19.6,13.1,21.0,15.3,6.0,89,83,72,30.27,29.96,18,9,0,0.00
2013-2-3,20.6,16.7,13.6,14.0,11.5,9.0,85,80,73,30.06,29.93,21,7,0,0.00
2013-2-4,25.6,21.0,12.6,23.0,18.0,8.0,91,88,80,30.07,29.83,11,5,0,0.02
2013-2-5,30.3,21.9,5.4,28.0,18.4,1.0,94,86,72,29.99,29.82,15,5,0,0.01
2013-2-6,30.6,25.5,16.5,26.0,17.1,10.0,87,71,53,30.27,30.00,12,4,0,0.02
2013-2-7,25.7,3.0,23.2,21.0,-86.3,-99.9,83,9,78,30.23,29.77,12,5,0,0.02
2013-2-8,-200.0,0.0,200.0,-99.9,-99.9,-99.9,0,0,100,30.28,29.74,25,10,0,0.00
2013-2-9,-200.0,0.0,200.0,-99.9,-99.9,-99.9,0,0,100,30.38,30.18,10,4,0,0.00
2013-2-10,-200.0,0.0,200.0,-99.9,-99.9,-99.9,0,0,100,30.17,29.63,21,8,0,0.00
2013-2-11,-200.0,0.0,200.0,-99.9,-99.9,-99.9,0,0,100,29.91,29.55,38,21,0,0.00
2013-2-12,-200.0,0.0,200.0,-99.9,-99.9,-99.9,0,0,100,30.03,29.87,21,10,0,0.00
2013-2-13,-200.0,0.0,200.0,-99.9,-99.9,-99.9,0,0,100,29.88,29.68,11,5,0,0.00
2013-2-14,-200.0,0.0,200.0,-99.9,-99.9,-99.9,0,0,100,29.88,29.66,29,14,0,0.00
2013-2-15,-200.0,0.0,200.0,-99.9,-99.9,-99.9,0,0,100,30.09,29.87,18,6,0,0.00
2013-2-16,-200.0,0.0,200.0,-99.9,-99.9,-99.9,0,0,100,30.07,29.96,20,8,0,0.00
2013-2-17,-200.0,0.0,200.0,-99.9,-99.9,-99.9,0,0,100,30.15,30.03,9,5,0,0.00
2013-2-18,-200.0,0.0,200.0,-99.9,-99.9,-99.9,0,0,100,30.12,29.53,30,14,0,0.00
2013-2-19,-200.0,0.0,200.0,-99.9,-99.9,-99.9,0,0,100,29.99,29.44,38,23,0,0.00
2013-2-20,-200.0,0.0,200.0,-99.9,-99.9,-99.9,0,0,100,30.23,29.99,21,13,0,0.00
2013-2-21,-200.0,0.0,200.0,-99.9,-99.9,-99.9,0,0,100,30.30,30.10,16,8,0,0.00
2013-2-22,-200.0,0.0,200.0,-99.9,-99.9,-99.9,0,0,100,30.10,29.80,24,9,0,0.00
2013-2-23,-200.0,0.0,200.0,-99.9,-99.9,-99.9,0,0,100,29.91,29.84,15,10,0,0.00
2013-2-24,-200.0,0.0,200.0,-99.9,-99.9,-99.9,0,0,100,30.10,29.88,19,6,0,0.00
2013-2-25,-200.0,0.0,200.0,-99.9,-99.9,-99.9,0,0,100,30.15,29.96,12,4,0,0.00
2013-2-26,-200.0,0.0,200.0,-99.9,-99.9,-99.9,0,0,100,29.95,29.36,18,-4,0,0.00
2013-2-27,-200.0,0.0,200.0,-99.9,-99.9,-99.9,0,0,100,29.56,29.37,17,10,0,0.00
2013-2-28,-200.0,0.0,200.0,-99.9,-99.9,-99.9,0,0,100,29.89,29.53,15,8,0,0.00
2013-3-1,-200.0,0.0,200.0,-99.9,-99.9,-99.9,0,0,100,30.03,29.88,12,7,0,0.00
2013-3-3,-200.0,0.0,200.0,-99.9,-99.9,-99.9,0,0,100,30.01,29.95,21,8,0,0.00
2013-3-4,-200.0,0.0,200.0,-99.9,-99.9,-99.9,0,0,100,30.09,29.98,5,2,0,0.00
2013-3-5,-200.0,0.0,200.0,-99.9,-99.9,-99.9,0,0,100,30.02,29.63,25,12,0,0.00
2013-3-6,-200.0,0.0,200.0,-99.9,-99.9,-99.9,0,0,100,30.18,29.69,18,9,0,0.00
2013-3-7,-200.0,0.0,200.0,-99.9,-99.9,-99.9,0,0,100,30.33,30.15,12,5,0,0.00
2013-3-8,-200.0,0.0,200.0,-99.9,-99.9,-99.9,0,0,100,30.43,30.33,6,1,0,0.00
2013-3-9,-200.0,0.0,200.0,-99.9,-99.9,-99.9,0,0,100,30.34,30.00,7,1,0,0.00
2013-3-14,-200.0,0.0,200.0,-99.9,-99.9,-99.9,0,0,100,30.14,30.07,14,-24,0,0.00
2013-3-15,-200.0,0.0,200.0,-99.9,-99.9,-99.9,0,0,100,30.07,29.73,11,6,0,0.00
2013-3-16,-200.0,0.0,200.0,-99.9,-99.9,-99.9,0,0,100,30.00,29.58,14,7,0,0.00
2013-3-17,-200.0,0.0,200.0,-99.9,-99.9,-99.9,0,0,100,30.16,29.99,15,10,0,0.00
2013-3-18,-200.0,0.0,200.0,-99.9,-99.9,-99.9,0,0,100,30.03,29.52,24,11,0,0.00
2013-3-19,-200.0,0.0,200.0,-99.9,-99.9,-99.9,0,0,100,29.94,29.67,35,22,0,0.00
2013-3-20,-200.0,0.0,200.0,-99.9,-99.9,-99.9,0,0,100,29.94,29.88,27,12,0,0.00
2013-3-21,-200.0,0.0,200.0,-99.9,-99.9,-99.9,0,0,100,29.94,29.87,17,8,0,0.00
2013-3-22,-200.0,0.0,200.0,-99.9,-99.9,-99.9,0,0,100,29.98,29.90,15,6,0,0.00
2013-3-23,-200.0,0.0,200.0,-99.9,-99.9,-99.9,0,0,100,30.03,29.93,11,3,0,0.00
2013-3-24,-200.0,0.0,200.0,-99.9,-99.9,-99.9,0,0,100,29.93,29.49,31,10,0,0.00
2013-3-25,-200.0,0.0,200.0,-99.9,-99.9,-99.9,0,0,100,29.87,29.43,19,10,0,0.00
2013-3-26,-200.0,0.0,200.0,-99.9,-99.9,-99.9,0,0,100,30.12,29.87,14,8,0,0.00
2013-3-27,-200.0,0.0,200.0,-99.9,-99.9,-99.9,0,0,100,30.22,30.12,19,8,0,0.00
2013-3-28,-200.0,0.0,200.0,-99.9,-99.9,-99.9,0,0,100,30.26,30.19,13,6,0,0.00
2013-3-29,-200.0,0.0,200.0,-99.9,-99.9,-99.9,0,0,100,30.26,30.15,14,4,0,0.00
2013-3-30,-200.0,0.0,200.0,-99.9,-99.9,-99.9,0,0,100,30.18,29.88,14,5,0,0.00
2013-3-31,-200.0,0.0,200.0,-99.9,-99.9,-99.9,0,0,100,29.87,29.62,23,10,0,0.00
2013-4-1,-200.0,0.0,200.0,-99.9,-99.9,-99.9,0,0,100,30.08,29.72,19,10,0,0.00
2013-4-2,-200.0,0.0,200.0,-99.9,-99.9,-99.9,0,0,100,30.21,30.08,21,6,0,0.00
2013-4-3,-200.0,0.0,200.0,-99.9,-99.9,-99.9,0,0,100,30.36,30.22,16,6,0,0.00
2013-4-4,-200.0,0.0,200.0,-99.9,-99.9,-99.9,0,0,100,30.29,29.91,10,5,0,0.00
2013-4-5,-200.0,0.0,200.0,-99.9,-99.9,-99.9,0,0,100,30.11,29.89,13,5,0,0.00
2013-4-6,-200.0,0.0,200.0,-99.9,-99.9,-99.9,0,0,100,30.15,29.73,26,12,0,0.00
2013-4-7,-200.0,0.0,200.0,-99.9,-99.9,-99.9,0,0,100,29.93,29.64,27,13,0,0.00
2013-4-8,-200.0,0.0,200.0,-99.9,-99.9,-99.9,0,0,100,29.94,29.70,33,11,0,0.00
2013-4-9,-200.0,0.0,200.0,-99.9,-99.9,-99.9,0,0,100,29.98,29.79,28,10,0,0.00
2013-4-10,-200.0,0.0,200.0,-99.9,-99.9,-99.9,0,0,100,29.87,29.76,21,7,0,0.00
2013-4-11,-200.0,0.0,200.0,-99.9,-99.9,-99.9,0,0,100,29.82,29.52,24,12,0,0.00
2013-4-12,-200.0,0.0,200.0,-99.9,-99.9,-99.9,0,0,100,29.80,29.49,28,13,0,0.00
2013-4-13,-200.0,0.0,200.0,-99.9,-99.9,-99.9,0,0,100,29.95,29.80,24,12,0,0.00
2013-4-14,-200.0,0.0,200.0,-99.9,-99.9,-99.9,0,0,100,30.03,29.82,16,3,0,0.00
2013-4-15,-200.0,0.0,200.0,-99.9,-99.9,-99.9,0,0,100,29.89,29.80,22,7,0,0.00
2013-4-16,-200.0,0.0,200.0,-99.9,-99.9,-99.9,0,0,100,29.93,29.82,15,9,0,0.00
2013-9-22,-200.0,0.0,200.0,-99.9,-99.9,-99.9,0,0,100,0.00,40.00,0,-999,0,0.00
2013-9-23,-200.0,0.0,200.0,-99.9,-99.9,-99.9,0,0,100,0.00,40.00,0,-999,0,0.00
2013-9-24,-200.0,0.0,200.0,-99.9,-99.9,-99.9,0,0,100,0.00,40.00,0,-999,0,0.00
2013-9-25,-200.0,0.0,200.0,-99.9,-99.9,-99.9,0,0,100,0.00,0.00,0,-999,0,0.00
2013-9-26,-200.0,0.0,200.0,-99.9,-99.9,-99.9,0,0,100,0.00,0.00,0,-999,0,0.00
2013-9-27,-200.0,0.0,200.0,-99.9,-99.9,-99.9,0,0,100,0.00,0.00,0,-999,0,0.00
2013-9-28,-200.0,0.0,200.0,-99.9,-99.9,-99.9,0,0,100,0.00,0.00,0,-999,0,0.00
2013-9-29,-200.0,0.0,200.0,-99.9,-99.9,-99.9,0,0,100,0.00,0.00,0,-999,0,0.00
2013-9-30,-200.0,0.0,200.0,-99.9,-99.9,-99.9,0,0,100,0.00,40.00,0,-999,0,0.00
2013-10-1,-200.0,0.0,200.0,-99.9,-99.9,-99.9,0,0,100,0.00,40.00,0,-999,0,0.00
2013-10-2,-200.0,0.0,200.0,-99.9,-99.9,-99.9,0,0,100,0.00,40.00,0,-999,0,0.00
2013-10-3,-200.0,0.0,200.0,-99.9,-99.9,-99.9,0,0,100,0.00,40.00,0,-999,0,0.00
2013-10-4,-200.0,0.0,200.0,-99.9,-99.9,-99.9,0,0,100,0.00,40.00,0,-999,0,0.00
2013-10-5,-200.0,0.0,200.0,-99.9,-99.9,-99.9,0,0,100,0.00,40.00,0,-999,0,0.00
2013-10-6,-200.0,0.0,200.0,-99.9,-99.9,-99.9,0,0,100,0.00,40.00,0,-999,0,0.00
2013-10-7,-200.0,0.0,200.0,-99.9,-99.9,-99.9,0,0,100,0.00,40.00,0,-999,0,0.00
2013-10-8,-200.0,0.0,200.0,-99.9,-99.9,-99.9,0,0,100,0.00,40.00,0,-999,0,0.00
2013-10-9,-200.0,0.0,200.0,-99.9,-99.9,-99.9,0,0,100,0.00,40.00,0,-999,0,0.00
2013-10-10,-200.0,0.0,200.0,-99.9,-99.9,-99.9,0,0,100,0.00,40.00,0,-999,0,0.00
2013-10-11,-200.0,0.0,200.0,-99.9,-99.9,-99.9,0,0,100,0.00,40.00,0,-999,0,0.00
2013-10-12,-200.0,0.0,200.0,-99.9,-99.9,-99.9,0,0,100,0.00,40.00,0,-999,0,0.00
2013-10-13,-200.0,0.0,200.0,-99.9,-99.9,-99.9,0,0,100,0.00,40.00,0,-999,0,0.00
2013-10-14,-200.0,0.0,200.0,-99.9,-99.9,-99.9,0,0,100,0.00,40.00,0,-999,0,0.00
2013-10-15,-200.0,0.0,200.0,-99.9,-99.9,-99.9,0,0,100,0.00,40.00,0,-999,0,0.00
2013-10-16,-200.0,0.0,200.0,-99.9,-99.9,-99.9,0,0,100,0.00,40.00,0,-999,0,0.00
2013-10-17,-200.0,0.0,200.0,-99.9,-99.9,-99.9,0,0,100,0.00,40.00,0,-999,0,0.00
2013-10-18,-200.0,0.0,200.0,-99.9,-99.9,-99.9,0,0,100,0.00,40.00,0,-999,0,0.00
2013-10-19,-200.0,0.0,200.0,-99.9,-99.9,-99.9,0,0,100,0.00,40.00,0,-999,0,0.00
2013-10-20,-200.0,0.0,200.0,-99.9,-99.9,-99.9,0,0,100,0.00,40.00,0,-999,0,0.00
2013-10-21,-200.0,0.0,200.0,-99.9,-99.9,-99.9,0,0,100,0.00,40.00,0,-999,0,0.00
2013-10-22,-200.0,0.0,200.0,-99.9,-99.9,-99.9,0,0,100,0.00,40.00,0,-999,0,0.00
2013-10-23,-200.0,0.0,200.0,-99.9,-99.9,-99.9,0,0,100,0.00,40.00,0,-999,0,0.00
2013-10-24,-200.0,0.0,200.0,-99.9,-99.9,-99.9,0,0,100,0.00,40.00,0,-999,0,0.00
2013-10-25,-200.0,0.0,200.0,-99.9,-99.9,-99.9,0,0,100,0.00,40.00,0,-999,0,0.00
2013-10-26,-200.0,0.0,200.0,-99.9,-99.9,-99.9,0,0,100,0.00,40.00,0,-999,0,0.00
2013-10-27,-200.0,0.0,200.0,-99.9,-99.9,-99.9,0,0,100,0.00,40.00,0,-999,0,0.00
2013-10-28,-200.0,0.0,200.0,-99.9,-99.9,-99.9,0,0,100,0.00,40.00,0,-999,0,0.00
2013-10-29,-200.0,0.0,200.0,-99.9,-99.9,-99.9,0,0,100,0.00,40.00,0,-999,0,0.00
2013-10-30,-200.0,0.0,200.0,-99.9,-99.9,-99.9,0,0,100,0.00,40.00,0,-999,0,0.00
2013-10-31,-200.0,0.0,200.0,-99.9,-99.9,-99.9,0,0,100,0.00,40.00,0,-999,0,0.00
2013-11-1,-200.0,0.0,200.0,-99.9,-99.9,-99.9,0,0,100,0.00,40.00,0,-999,0,0.00
2013-11-2,-200.0,0.0,200.0,-99.9,-99.9,-99.9,0,0,100,0.00,40.00,0,-999,0,0.00
2013-11-3,-200.0,0.0,200.0,-99.9,-99.9,-99.9,0,0,100,0.00,40.00,0,-999,0,0.00
2013-11-4,-200.0,0.0,200.0,-99.9,-99.9,-99.9,0,0,100,0.00,40.00,0,-999,0,0.00
2013-11-5,-200.0,0.0,200.0,-99.9,-99.9,-99.9,0,0,100,0.00,40.00,0,-999,0,0.00
2013-11-6,-200.0,0.0,200.0,-99.9,-99.9,-99.9,0,0,100,0.00,40.00,0,-999,0,0.00
2013-11-7,-200.0,0.0,200.0,-99.9,-99.9,-99.9,0,0,100,0.00,40.00,0,-999,0,0.00
2013-11-8,-200.0,0.0,200.0,-99.9,-99.9,-99.9,0,0,100,0.00,40.00,0,-999,0,0.00
2013-11-9,-200.0,0.0,200.0,-99.9,-99.9,-99.9,0,0,100,0.00,40.00,0,-999,0,0.00
2013-11-10,-200.0,0.0,200.0,-99.9,-99.9,-99.9,0,0,100,0.00,40.00,0,-999,0,0.00
2013-11-11,-200.0,0.0,200.0,-99.9,-99.9,-99.9,0,0,100,0.00,40.00,0,-999,0,0.00
2013-11-12,-200.0,0.0,200.0,-99.9,-99.9,-99.9,0,0,100,0.00,40.00,0,-999,0,0.00
2013-11-13,-200.0,0.0,200.0,-99.9,-99.9,-99.9,0,0,100,0.00,40.00,0,-999,0,0.00
2013-11-14,-200.0,0.0,200.0,-99.9,-99.9,-99.9,0,0,100,0.00,40.00,0,-999,0,0.00
2013-11-15,-200.0,0.0,200.0,-99.9,-99.9,-99.9,0,0,100,0.00,40.00,0,-999,0,0.00
2013-11-16,-200.0,0.0,200.0,-99.9,-99.9,-99.9,0,0,100,0.00,40.00,0,-999,0,0.00
2013-11-17,-200.0,0.0,200.0,-99.9,-99.9,-99.9,0,0,100,0.00,40.00,0,-999,0,0.00
2013-11-18,-200.0,0.0,200.0,-99.9,-99.9,-99.9,0,0,100,0.00,40.00,0,-999,0,0.00
2013-11-19,-200.0,0.0,200.0,-99.9,-99.9,-99.9,0,0,100,0.00,40.00,0,-999,0,0.00
2013-11-20,-200.0,0.0,200.0,-99.9,-99.9,-99.9,0,0,100,0.00,40.00,0,-999,0,0.00
2013-11-21,-200.0,0.0,200.0,-99.9,-99.9,-99.9,0,0,100,0.00,40.00,0,-999,0,0.00
2013-11-22,-200.0,0.0,200.0,-99.9,-99.9,-99.9,0,0,100,0.00,0.00,0,-999,0,0.00
2013-11-23,-200.0,0.0,200.0,-99.9,-99.9,-99.9,0,0,100,0.00,0.00,0,-999,0,0.00
2013-11-24,-200.0,0.0,200.0,-99.9,-99.9,-99.9,0,0,100,0.00,0.00,0,-999,0,0.00
2013-11-25,-200.0,0.0,200.0,-99.9,-99.9,-99.9,0,0,100,0.00,0.00,0,-999,0,0.00
2013-11-26,-200.0,0.0,200.0,-99.9,-99.9,-99.9,0,0,100,0.00,0.00,0,-999,0,0.00
2013-11-27,-200.0,0.0,200.0,-99.9,-99.9,-99.9,0,0,100,0.00,0.00,0,-999,0,0.00
2013-11-28,-200.0,0.0,200.0,-99.9,-99.9,-99.9,0,0,100,0.00,0.00,0,-999,0,0.00
2013-11-29,-200.0,0.0,200.0,-99.9,-99.9,-99.9,0,0,100,0.00,40.00,0,-999,0,0.00
2013-11-30,-200.0,0.0,200.0,-99.9,-99.9,-99.9,0,0,100,0.00,40.00,0,-999,0,0.00
2013-12-1,-200.0,0.0,200.0,-99.9,-99.9,-99.9,0,0,100,0.00,0.00,0,-999,0,0.00
2013-12-2,-200.0,0.0,200.0,-99.9,-99.9,-99.9,0,0,100,0.00,0.00,0,-999,0,0.00
2013-12-3,-200.0,0.0,200.0,-99.9,-99.9,-99.9,0,0,100,0.00,0.00,0,-999,0,0.00
2013-12-4,-200.0,0.0,200.0,-99.9,-99.9,-99.9,0,0,100,0.00,0.00,0,-999,0,0.00
2013-12-5,-200.0,0.0,200.0,-99.9,-99.9,-99.9,0,0,100,0.00,0.00,0,-999,0,0.00
2013-12-6,-200.0,0.0,200.0,-99.9,-99.9,-99.9,0,0,100,0.00,0.00,0,-999,0,0.00
2013-12-7,-200.0,0.0,200.0,-99.9,-99.9,-99.9,0,0,100,0.00,0.00,0,-999,0,0.00
2013-12-8,-200.0,0.0,200.0,-99.9,-99.9,-99.9,0,0,100,0.00,0.00,0,-999,0,0.00
2013-12-9,-200.0,0.0,200.0,-99.9,-99.9,-99.9,0,0,100,0.00,0.00,0,-999,0,0.00
2013-12-10,-200.0,0.0,200.0,-99.9,-99.9,-99.9,0,0,100,0.00,0.00,0,-999,0,0.00
2013-12-11,-200.0,0.0,200.0,-99.9,-99.9,-99.9,0,0,100,0.00,0.00,0,-999,0,0.00
2013-12-12,-200.0,0.0,200.0,-99.9,-99.9,-99.9,0,0,100,0.00,0.00,0,-999,0,0.00
2013-12-13,-200.0,0.0,200.0,-99.9,-99.9,-99.9,0,0,100,0.00,0.00,0,-999,0,0.00
2013-12-14,-200.0,0.0,200.0,-99.9,-99.9,-99.9,0,0,100,0.00,0.00,0,-999,0,0.00
2013-12-15,-200.0,0.0,200.0,-99.9,-99.9,-99.9,0,0,100,0.00,0.00,0,-999,0,0.00
2013-12-16,-200.0,0.0,200.0,-99.9,-99.9,-99.9,0,0,100,0.00,0.00,0,-999,0,0.00
2013-12-17,-200.0,0.0,200.0,-99.9,-99.9,-99.9,0,0,100,0.00,0.00,0,-999,0,0.00
2013-12-18,-200.0,0.0,200.0,-99.9,-99.9,-99.9,0,0,100,0.00,0.00,0,-999,0,0.00
2013-12-19,-200.0,0.0,200.0,-99.9,-99.9,-99.9,0,0,100,0.00,0.00,0,-999,0,0.00
2013-12-24,-200.0,0.0,200.0,-99.9,-99.9,-99.9,0,0,100,0.00,0.00,0,-999,0,0.00
2013-12-25,-200.0,0.0,200.0,-99.9,-99.9,-99.9,0,0,100,0.00,0.00,0,-999,0,0.00
2013-12-26,-200.0,0.0,200.0,-99.9,-99.9,-99.9,0,0,100,0.00,0.00,0,-999,0,0.00
2013-12-27,-200.0,0.0,200.0,-99.9,-99.9,-99.9,0,0,100,0.00,0.00,0,-999,0,0.00
2013-12-28,-200.0,0.0,200.0,-99.9,-99.9,-99.9,0,0,100,0.00,0.00,0,-999,0,0.00
2013-12-29,-200.0,0.0,200.0,-99.9,-99.9,-99.9,0,0,100,0.00,0.00,0,-999,0,0.00
2013-12-30,-200.0,0.0,200.0,-99.9,-99.9,-99.9,0,0,100,0.00,0.00,0,-999,0,0.00
2013-12-31,-200.0,0.0,200.0,-99.9,-99.9,-99.9,0,0,100,0.00,0.00,0,-999,0,0.00
2014-1-1,-200.0,0.0,200.0,-99.9,-99.9,-99.9,0,0,100,0.00,0.00,0,-999,0,0.00
2014-1-2,-200.0,0.0,200.0,-99.9,-99.9,-99.9,0,0,100,0.00,0.00,0,-999,0,0.00